Moline, IL

8:42 PM CDT on March 29, 2017 (GMT -0500)
Quad-City International

Weather History for KMLI - February, 2013

Change the Weather History Date:

Wednesday, February 13, 2013

  Actual Average Record
Temperature  
Mean Temperature 35 °F 26 °F  
Max Temperature 44 °F 35 °F 64 °F (1938)
Min Temperature 25 °F 18 °F -25 °F (1905)
Degree Days  
Heating Degree Days 30 39  
Month to date heating degree days 476 526  
Since 1 July heating degree days 4048 4260  
Cooling Degree Days 0 0  
Month to date cooling degree days 0 0  
Year to date cooling degree days 0 0  
Moisture  
Dew Point 27 °F    
Average Humidity 69    
Maximum Humidity 85    
Minimum Humidity 53    
Precipitation  
Precipitation 0.00 in 0.05 in 0.99 in (1906)
Month to date precipitation 1.15 0.62  
Year to date precipitation 4.01 2.11  
Snow  
Snow 0.00 in 0.30 in - ()
Month to date snowfall 1.1 3.6  
Since 1 July snowfall 10.7 23.5  
Snow Depth 0.00 in    
Sea Level Pressure  
Sea Level Pressure 29.79 in    
Wind  
Wind Speed 7 mph (WSW)    
Max Wind Speed 14 mph    
Max Gust Speed 21 mph    
Visibility 10 miles    
Events      
T = Trace of Precipitation, MM = Missing Value Source: NWS Daily Summary

Daily Weather History Graph

Daily Weather History Graph

Search for Another Location

Airport or City:

Trip Planner

Search our weather history database for the weather conditions in past years. The results will help you decide how hot, cold, wet, or windy it might be!

Date:

Astronomy

Feb. 13, 2013 Rise Set
Actual Time 6:59 AM CST 5:33 PM CST
Civil Twilight 6:30 AM CST 6:02 PM CST
Nautical Twilight 5:58 AM CST 6:34 PM CST
Astronomical Twilight 5:26 AM CST 7:06 PM CST
Moon 8:25 AM CST (2/13) 9:40 PM CST (2/13)
Length of Visible Light 11h 31m
Length of Day
10h 34m
Waxing Crescent, 14% of the Moon is Illuminated
Feb 13
Waxing Crescent
Feb 17
First Quarter
Feb 25
Full
Mar 4
Last Quarter
Mar 11
New

Hourly Weather History & Observations

Time (CST) Temp. Windchill Dew Point Humidity Pressure Visibility Wind Dir Wind Speed Gust Speed Precip Events Conditions
12:52 AM 30.9 °F 24.3 °F 25.0 °F 79% 29.89 in 10.0 mi WSW 6.9 mph - N/A   Clear
1:52 AM 28.0 °F 24.2 °F 23.0 °F 81% 29.88 in 10.0 mi WSW 3.5 mph - N/A   Clear
2:52 AM 28.0 °F 24.2 °F 24.1 °F 85% 29.85 in 10.0 mi WSW 3.5 mph - N/A   Clear
3:52 AM 28.0 °F 22.8 °F 23.0 °F 81% 29.83 in 10.0 mi WSW 4.6 mph - N/A   Clear
4:52 AM 27.0 °F - 23.0 °F 85% 29.82 in 10.0 mi Calm Calm - N/A   Clear
5:52 AM 27.0 °F 23.0 °F 23.0 °F 85% 29.81 in 9.0 mi WSW 3.5 mph - N/A   Clear
6:52 AM 26.1 °F 20.5 °F 21.9 °F 84% 29.81 in 9.0 mi SW 4.6 mph - N/A   Clear
7:52 AM 28.0 °F 24.2 °F 24.1 °F 85% 29.81 in 6.0 mi SW 3.5 mph - N/A   Clear
8:52 AM 32.0 °F 24.8 °F 27.0 °F 82% 29.82 in 7.0 mi West 8.1 mph - N/A   Clear
9:52 AM 35.1 °F 29.3 °F 28.0 °F 76% 29.81 in 8.0 mi WNW 6.9 mph - N/A   Clear
10:52 AM 39.0 °F 33.4 °F 28.9 °F 67% 29.80 in - WNW 8.1 mph - N/A   Clear
11:52 AM 41.0 °F 34.3 °F 28.0 °F 60% 29.80 in 10.0 mi West 11.5 mph - N/A   Clear
12:52 PM 44.1 °F 37.4 °F 30.0 °F 58% 29.77 in 10.0 mi WSW 13.8 mph - N/A   Clear
1:52 PM 43.0 °F 36.4 °F 28.9 °F 58% 29.76 in 10.0 mi WNW 12.7 mph - N/A   Clear
2:52 PM 44.1 °F 38.6 °F 28.9 °F 55% 29.76 in 10.0 mi West 10.4 mph - N/A   Clear
3:52 PM 44.1 °F 37.7 °F 28.9 °F 55% 29.77 in 10.0 mi West 12.7 mph - N/A   Clear
4:52 PM 43.0 °F 38.8 °F 28.9 °F 58% 29.77 in 10.0 mi West 6.9 mph - N/A   Clear
5:52 PM 39.9 °F 36.7 °F 28.9 °F 65% 29.78 in 10.0 mi SW 4.6 mph - N/A   Overcast
6:52 PM 39.0 °F 35.7 °F 30.0 °F 70% 29.78 in 10.0 mi SW 4.6 mph - N/A   Overcast
7:52 PM 36.0 °F 31.1 °F 28.9 °F 76% 29.77 in 10.0 mi South 5.8 mph - N/A   Scattered Clouds
8:52 PM 37.0 °F - 28.9 °F 73% 29.75 in 10.0 mi Calm Calm - N/A   Partly Cloudy
9:52 PM 39.0 °F 33.4 °F 28.9 °F 67% 29.73 in 10.0 mi SSW 8.1 mph - N/A   Mostly Cloudy
10:52 PM 39.9 °F 33.9 °F 28.9 °F 65% 29.72 in 10.0 mi SSW 9.2 mph - N/A   Clear
11:52 PM 39.9 °F 32.9 °F 30.0 °F 68% 29.70 in 10.0 mi SSW 11.5 mph - N/A   Overcast